Weather History for Chicopee, MA

Change the Weather History Date:

Wednesday, March 26, 2014

  Actual Average Record
Temperature  
Mean Temperature 30 °F -  
Max Temperature 37 °F 47 °F 69 °F (2004)
Min Temperature 22 °F 31 °F 19 °F (2001)
Degree Days  
Heating Degree Days 36    
Moisture  
Dew Point 7 °F    
Average Humidity 41    
Maximum Humidity 59    
Minimum Humidity 24    
Precipitation  
Precipitation 0.00 in - - ()
Sea Level Pressure  
Sea Level Pressure 29.85 in    
Wind  
Wind Speed 14 mph (North)    
Max Wind Speed 29 mph    
Max Gust Speed 39 mph    
Visibility 10 miles    
Events      
Averages and records for this station are not official NWS values.
T = Trace of Precipitation, MM = Missing Value Source: NWS Daily Summary

Daily Weather History Graph

Daily Weather History Graph

Search for Another Location

Airport:

Trip Planner

Search our weather history database for the weather conditions in past years. The results will help you decide how hot, cold, wet, or windy it might be!

Date:

Astronomy

Mar. 26, 2014 Rise Set
Actual Time 6:43 AM EDT 7:09 PM EDT
Civil Twilight 6:15 AM EDT 7:37 PM EDT
Nautical Twilight 5:42 AM EDT 8:10 PM EDT
Astronomical Twilight 5:08 AM EDT 8:44 PM EDT
Moon 3:54 AM EDT (3/26) 2:40 PM EDT (3/26)
Length of Visible Light 13h 22m
Length of Day
12h 26m
Waning Crescent, 22% of the Moon is Illuminated
Mar 26
Waning Crescent
Mar 30
New
Apr 7
First Quarter
Apr 15
Full
Apr 22
Last Quarter

Hourly Weather History & Observations

Time (EDT) Temp. Windchill Dew Point Humidity Pressure Visibility Wind Dir Wind Speed Gust Speed Precip Events Conditions
12:58 AM 28.9 °F 22.8 °F 16.3 °F 59% 29.87 in 10.0 mi North 5.8 mph - N/A   Clear
1:58 AM 29.5 °F 25.9 °F 15.3 °F 55% 29.86 in 10.0 mi North 3.5 mph - N/A   Clear
2:58 AM 29.5 °F 23.4 °F 16.2 °F 58% 29.85 in 10.0 mi North 5.8 mph - N/A   Clear
3:58 AM 29.7 °F 21.3 °F 15.1 °F 55% 29.79 in 10.0 mi North 9.2 mph - N/A   Clear
4:58 AM 29.5 °F 21.1 °F 14.9 °F 55% 29.78 in 10.0 mi North 9.2 mph - N/A   Clear
5:58 AM 29.3 °F 18.2 °F 15.8 °F 57% 29.74 in 10.0 mi NNE 15.0 mph - N/A   Clear
6:58 AM 28.9 °F 17.3 °F 15.8 °F 58% 29.78 in 10.0 mi North 16.1 mph - N/A   Overcast
7:58 AM 28.6 °F 15.6 °F 15.1 °F 57% 29.78 in 10.0 mi NNE 19.6 mph 27.6 mph N/A   Overcast
8:58 AM 29.3 °F 17.3 °F 14.5 °F 54% 29.78 in 10.0 mi North 17.3 mph 24.2 mph N/A   Mostly Cloudy
9:58 AM 30.6 °F 19.0 °F 13.1 °F 48% 29.78 in 10.0 mi North 17.3 mph 26.5 mph N/A   Overcast
10:58 AM 32.5 °F 19.4 °F 12.6 °F 44% 29.76 in 10.0 mi North 25.3 mph 31.1 mph N/A   Overcast
11:58 AM 33.4 °F 22.0 °F 12.0 °F 41% 29.74 in 10.0 mi North 19.6 mph 27.6 mph N/A   Overcast
12:58 PM 32.9 °F 20.4 °F 12.2 °F 42% 29.74 in 10.0 mi NNW 23.0 mph 34.5 mph N/A   Mostly Cloudy
1:58 PM 34.5 °F 21.3 °F 5.9 °F 30% 29.75 in 10.0 mi NNW 28.8 mph 36.8 mph N/A   Mostly Cloudy
2:58 PM 36.5 °F 24.9 °F 3.2 °F 25% 29.74 in 10.0 mi North 24.2 mph 34.5 mph N/A   Scattered Clouds
3:58 PM 35.4 °F 23.0 °F 1.6 °F 24% 29.77 in 10.0 mi North 26.5 mph 39.1 mph N/A   Partly Cloudy
4:58 PM 33.6 °F 20.8 °F 3.6 °F 28% 29.80 in 10.0 mi NNW 25.3 mph 38.0 mph N/A   Scattered Clouds
5:58 PM 31.6 °F 18.4 °F 3.2 °F 30% 29.84 in 10.0 mi NNW 24.2 mph 31.1 mph N/A   Partly Cloudy
6:58 PM 29.7 °F 17.1 °F -0.4 °F 28% 29.90 in 10.0 mi NNW 19.6 mph 27.6 mph N/A   Clear
7:58 PM 28.0 °F 13.9 °F -4.4 °F 25% 29.96 in 10.0 mi North 23.0 mph 31.1 mph N/A   Clear
8:58 PM 26.4 °F 14.0 °F -6.5 °F 24% 30.01 in 10.0 mi NNW 16.1 mph 23.0 mph N/A   Clear
9:58 PM 24.8 °F 11.9 °F -4.7 °F 28% 30.06 in 10.0 mi NNW 16.1 mph 33.4 mph N/A   Clear
10:58 PM 23.5 °F 9.9 °F -5.8 °F 28% 30.09 in 10.0 mi North 17.3 mph 21.9 mph N/A   Clear
11:58 PM 22.5 °F 11.1 °F -5.6 °F 29% 30.12 in 10.0 mi North 11.5 mph 25.3 mph N/A   Clear